Prescott, AZ

10:40 AM MST on October 20, 2019 (GMT -0700)
Love

Weather History for KPRC - August, 2019

Change the Weather History Date:

Saturday, August 10, 2019

  Actual Average Record
Temperature  
Mean Temperature 76 °F 74 °F  
Max Temperature 89 °F 87 °F 97 °F (2012)
Min Temperature 62 °F 61 °F 53 °F (1949)
Degree Days  
Heating Degree Days 0    
Month to date heating degree days 0  
Since 1 July heating degree days 0  
Cooling Degree Days 11    
Month to date cooling degree days 128  
Year to date cooling degree days 696  
Growing Degree Days 24 (Base 50)    
Moisture  
Dew Point 53 °F    
Average Humidity 48    
Maximum Humidity 78    
Minimum Humidity 25    
Precipitation  
Precipitation 0.00 in 0.09 in 0.86 in (2016)
Month to date precipitation 0.30 0.90  
Year to date precipitation 8.11 7.94  
Sea Level Pressure  
Sea Level Pressure 29.87 in    
Wind  
Wind Speed 7 mph (SSW)    
Max Wind Speed 20 mph    
Max Gust Speed 26 mph    
Visibility 10 miles    
Events Thunderstorm    
T = Trace of Precipitation, MM = Missing Value Source: NWS Daily Summary

Daily Weather History Graph

Daily Weather History Graph

Search for Another Location

Airport or City:

Astronomy

Aug. 10, 2019 Rise Set
Actual Time 5:46 AM MST 7:23 PM MST
Civil Twilight 5:19 AM MST 7:50 PM MST
Nautical Twilight 4:46 AM MST 8:22 PM MST
Astronomical Twilight 4:12 AM MST 8:56 PM MST
Moon 4:04 PM MST (8/10) 1:29 AM MST (8/10)
Length of Visible Light 14h 30m
Length of Day
13h 36m
Waxing Gibbous, 80% of the Moon is Illuminated
Aug 10
Waxing Gibbous
Aug 15
Full
Aug 23
Last Quarter
Aug 30
New
Sep 5
First Quarter

Hourly Weather History & Observations

Time (MST) Temp. Heat Index Dew Point Humidity Pressure Visibility Wind Dir Wind Speed Gust Speed Precip Events Conditions
12:53 AM 66.9 °F - 55.0 °F 66% 29.86 in 10.0 mi South 3.5 mph - N/A   Clear
1:53 AM 66.0 °F - 55.0 °F 68% 29.87 in 10.0 mi Calm Calm - N/A   Clear
2:53 AM 64.0 °F - 55.0 °F 73% 29.86 in 10.0 mi Calm Calm - N/A   Clear
3:53 AM 62.1 °F - 55.0 °F 78% 29.86 in 10.0 mi Calm Calm - N/A   Clear
4:53 AM 64.9 °F - 54.0 °F 68% 29.87 in 10.0 mi SSW 5.8 mph - N/A   Clear
5:53 AM 63.0 °F - 55.0 °F 75% 29.89 in 10.0 mi SSW 5.8 mph - N/A   Clear
6:53 AM 66.0 °F - 55.9 °F 70% 29.90 in 10.0 mi Calm Calm - N/A   Overcast
7:53 AM 70.0 °F - 57.0 °F 63% 29.91 in 10.0 mi Calm Calm - N/A   Clear
8:53 AM 78.1 °F - 55.0 °F 45% 29.89 in 10.0 mi SSE 6.9 mph - N/A   Clear
9:53 AM 80.1 °F 80.1 °F 55.0 °F 42% 29.89 in 10.0 mi WSW 4.6 mph - N/A   Partly Cloudy
10:53 AM 81.0 °F 80.5 °F 54.0 °F 39% 29.89 in 10.0 mi South 10.4 mph - N/A   Scattered Clouds
11:53 AM 82.9 °F 82.0 °F 55.0 °F 38% 29.87 in 10.0 mi ESE 8.1 mph - N/A   Scattered Clouds
12:17 PM 86.0 °F 84.0 °F 53.1 °F 32% 30.12 in 10.0 mi South 11.5 mph 19.6 mph N/A Thunderstorm Thunderstorm
12:53 PM 86.0 °F - 50.0 °F 29% 29.84 in 10.0 mi SSW 6.9 mph 19.6 mph N/A Thunderstorm Thunderstorm
1:53 PM 86.0 °F - 52.0 °F 31% 29.83 in 10.0 mi West 8.1 mph - N/A   Scattered Clouds
2:53 PM 87.1 °F - 52.0 °F 30% 29.82 in 10.0 mi West 16.1 mph 25.3 mph N/A   Scattered Clouds
3:53 PM 86.0 °F - 51.1 °F 30% 29.82 in 10.0 mi SW 11.5 mph 25.3 mph N/A   Clear
4:53 PM 84.9 °F - 50.0 °F 30% 29.82 in 10.0 mi SW 12.7 mph 23.0 mph N/A   Scattered Clouds
5:53 PM 84.9 °F - 45.0 °F 25% 29.82 in 10.0 mi SW 15.0 mph - N/A   Clear
6:53 PM 82.0 °F - 46.9 °F 29% 29.83 in 10.0 mi WSW 16.1 mph 19.6 mph N/A   Clear
7:53 PM 79.0 °F - 48.9 °F 35% 29.84 in 10.0 mi SW 8.1 mph - N/A   Clear
8:53 PM 77.0 °F - 52.0 °F 42% 29.84 in 10.0 mi SSW 6.9 mph - N/A   Clear
9:53 PM 75.0 °F - 55.0 °F 50% 29.86 in 10.0 mi SSW 8.1 mph - N/A   Clear
10:53 PM 72.0 °F - 55.9 °F 57% 29.86 in 10.0 mi Calm Calm - N/A   Clear
11:53 PM 72.0 °F - 55.9 °F 57% 29.87 in 10.0 mi SSE 5.8 mph - N/A   Clear